Regional Weather Roundup
Issued by NWS

Home | Current Version | Previous Version | Text Only | Print | Product List | Glossary On
Versions: 1 2 3 4 5 6 7 8 9 10 11 12 13 14 15 16 17 18 19 20 21 22 23 24 25 26 27 28 29 30 31 32 33 34 35 36 37 38 39 40 41 42 43 44 45 46 47 48 49 50
000
ASUS44 KFWD 200215
RWRTX
NORTH TEXAS HOURLY WEATHER ROUNDUP
NATIONAL WEATHER SERVICE FORT WORTH TX
900 PM CDT SAT AUG 19 2017

NOTE: "FAIR" INDICATES FEW OR NO CLOUDS BELOW 12,000 FEET WITH NO
SIGNIFICANT WEATHER AND/OR OBSTRUCTIONS TO VISIBILITY.

TXZ118-119-200300-
DALLAS/FORT WORTH METROPLEX

CITY           SKY/WX    TMP DP  RH WIND       PRES   REMARKS
DFW AIRPORT    MOCLDY    91  70  49 SE8       29.90R HX  96
DALLAS LOVE    MOCLDY    92  70  48 SE12      29.91R HX  97
FTW MEACHAM    CLOUDY    90  71  53 SE5       29.91R HX  96
DAL-EXECUTIVE  PTCLDY    89  70  53 SE8       29.92R HX  94
FTW-ALLIANCE   MOCLDY    85  76  74 CALM      29.92R HX  94
FTW-NAS-JRB    MOCLDY    91  69  48 S3        29.92R HX  96
FTW-SPINKS     CLOUDY    83  74  73 CALM      29.93R HX  90
ARLINGTON      CLOUDY    89  71  55 SE8       29.92R HX  95
GRAND PRAIRIE  CLEAR     90  66  45 E7        29.92R HX  92
ADDISON        CLEAR     91  68  46 SE9G15    29.93R HX  95
MESQUITE         N/A     84  72  67 CALM      29.93R HX  90
LANCASTER      PTCLDY    89  69  51 SE6       29.93R HX  93
$$

TXZ091>094-102>105-117-120-121-131>134-200300-
NORTH CENTRAL TEXAS

CITY           SKY/WX    TMP DP  RH WIND       PRES   REMARKS
SHRMAN/DENISON CLOUDY    87  73  62 SE8       29.94R HX  93
GAINESVILLE    CLOUDY    81  72  73 CALM      29.95R
BOWIE          MOCLDY    78  74  90 CALM      29.95R
BRIDGEPORT     CLOUDY    79  73  82 CALM      29.95R
DECATUR        CLOUDY    81  72  74 NE3         N/A
DENTON         MOCLDY    84  80  88 NW5       29.92R HX  97
MCKINNEY       CLOUDY    86  77  74 E6        29.93R HX  97
BONHAM         PTCLDY    84  75  74 S7        29.94R HX  92
GREENVILLE     MOCLDY    86  77  74 SE3       29.94R HX  97
ROCKWALL       PTCLDY    86  74  66 S7        29.93R HX  94
TERRELL        MOCLDY    87  72  60 SE7       29.93R HX  93
WAXAHACHIE     PTCLDY    86  68  55 CALM      29.94R HX  90
CLEBURNE       PTCLDY    88  66  48 S5        29.95R HX  90
GRANBURY       MOCLDY    87  70  57 CALM      29.93R HX  92
$$

TXZ083>090-098>101-113>116-127>130-139>142-154-155-200300-
WESTERN NORTH TEXAS

CITY           SKY/WX    TMP DP  RH WIND       PRES   REMARKS
WICHITA FALLS  CLOUDY    81  66  60 S7        29.93R
WF-KICKAPOO    CLOUDY    83  68  60 SW3       29.96R
VERNON         CLOUDY    81  62  51 SW12      29.93F
ABILENE        MOCLDY    78  71  79 CALM      29.99R
ABILENE-DYESS  PTCLDY    78  70  77 CALM      29.98R
GRAHAM         CLOUDY    75  32  20 E3        29.94R
BRECKENRIDGE   CLOUDY    79  71  77 CALM      29.95R
CISCO          CLOUDY    79  68  69 CALM      29.97R
EASTLAND       PTCLDY    76  68  77 CALM      29.96R
RANGER         PTCLDY    73  72  96 CALM      29.96R
MINERAL WELLS  CLOUDY    80  72  76 CALM      29.92R
STEPHENVILLE   PTCLDY    83  70  64 CALM      29.98R
COMANCHE       CLEAR     84  64  50 E3        29.95R
BROWNWOOD      CLEAR     82  66  57 NE3       29.95R
COLEMAN        CLEAR     83  67  59 NE6       29.97R
$$

TXZ143>147-156>162-174-175-200300-
CENTRAL TEXAS

CITY           SKY/WX    TMP DP  RH WIND       PRES   REMARKS
WACO           CLEAR     90  66  45 S7        29.91R HX  92
WACO-TSTC      CLEAR     90  64  43 S5        29.91R HX  91
WACO-MCGREGOR  CLEAR     89  63  41 S7        29.93R HX  90
HILLSBORO      CLEAR     89  68  50 E8        29.93R HX  93
CORSICANA      CLEAR     88  73  61 E7        29.93R HX  95
MEXIA          CLEAR     88  67  50 E5        29.92R HX  91
CAMERON        CLEAR     89  68  49 S3        29.92R HX  93
TEMPLE         CLEAR     88  64  44 SE8       29.93R
KILLEEN        CLEAR     87  64  46 SE10      29.93R
KILLEEN-SKYLRK CLEAR     90  67  46 SE9       29.94R HX  93
FORT HOOD      CLEAR     89  65  45 SE8       29.91R HX  91
HAMILTON       CLEAR     86  61  42 SE7       29.96R
LAMPASAS       CLEAR     89  65  46 SE5       29.95R HX  90
$$

TXZ095>097-106>112-122>126-135>138-148>153-164>167-200300-
EAST TEXAS

CITY           SKY/WX    TMP DP  RH WIND       PRES   REMARKS
PARIS          CLOUDY    84  77  79 S6        29.95R HX  94
SULPHUR SPRNGS CLOUDY    86  75  68 SE3       29.96R HX  95
MOUNT PLEASANT MOCLDY    84  79  86 CALM      29.95R HX  96
GILMER         CLEAR     83  78  84 CALM      29.95R HX  92
MINEOLA        PTCLDY    82  77  83 SE3       29.94R HX  91
TYLER          CLEAR     84  77  79 SE7       29.94R HX  94
LONGVIEW       CLEAR     83  79  88 SE5       29.94R HX  94
MARSHALL         N/A     80  76  89 CALM      29.97R
ATHENS         CLEAR     82  73  74 CALM      29.93R
PALESTINE      CLEAR     87  73  62 E5        29.95R HX  94
JACKSONVILLE   CLEAR     86  73  65 CALM      29.98R HX  92
HENDERSON      CLEAR     82  76  82 CALM      29.96R
CENTER         CLEAR     85  83  94 CALM      29.97R HX 106
NACOGDOCHES    CLEAR     85  77  77 SE3       29.96R HX  95
LUFKIN         CLEAR     84  75  74 E3        29.94R HX  92
$$

SUPPLEMENTAL OBSERVATIONS (NWS FORT WORTH AREA)

CITY           SKY/WX    TMP DP  RH WIND       PRES   REMARKS
DENISON DAM      N/A     88  73  62 S5          N/A  HX  96
CADDO GRASSLND   N/A     84  75  74 S3          N/A  HX  92
PAT MAYSE LAKE   N/A     88  82  84 SE8         N/A  HX 108
LBJ GRASSLAND    N/A     81  70  69 NE2         N/A
POSSUM KINGDOM   N/A     75  72  88 W2          N/A
GRANBURY         N/A     86  70  58 S1          N/A  HX  90
COMANCHE         N/A     84  61  45 SE3         N/A
MCGREGOR         N/A     90  63  40 SE7         N/A  HX  90
TEMPLE           N/A     90  63  40 SE1         N/A  HX  90
LAKE LIMESTONE   N/A     90  68  48 SE6         N/A  HX  93
ATHENS           N/A     86  73  66 E3          N/A  HX  93
$$

SUPPLEMENTAL OBSERVATIONS (NWS NORMAN AREA)

CITY           SKY/WX    TMP DP  RH WIND       PRES   REMARKS
GOODLETT         N/A     80  65  61 S17       29.95R
ODELL            N/A     79  66  62 S9        29.94S
CROWELL          N/A     77  69  76 SW10      29.95S
KNOX CITY        N/A     77  66  67 SW6       29.99R
SEYMOUR          N/A     78  68  71 S9        29.94F
MILLERS CREEK    N/A     77  72  83 SW5         N/A
$$

SUPPLEMENTAL OBSERVATIONS (NWS SAN ANGELO AREA)

CITY           SKY/WX    TMP DP  RH WIND       PRES   REMARKS
WEINERT          N/A     77  70  78 SE7       29.98R
HASKELL          N/A     75  69  80 SW1       29.99R
THROCKMORTON     N/A     77  71  80 SW6       29.98R
STAMFORD         N/A     78  70  75 NE7       29.99R
CLYDE            N/A     78  69  74 E6        30.01R
HAMBY            N/A     79  70  73 E3          N/A
IVIE RESERVOIR   N/A    N/A N/A N/A E6          N/A
COLORADO BEND    N/A    N/A N/A N/A SE6         N/A
$$

SUPPLEMENTAL OBSERVATIONS (NWS SHREVEPORT AREA)

CITY           SKY/WX    TMP DP  RH WIND       PRES   REMARKS
CLARKSVILLE      N/A     84  75  74 SE2         N/A  HX  92
CADDO LAKE       N/A     79  75  89 CALM        N/A
GILMER           N/A     82  79  89 CALM        N/A  HX  93
HENDERSON        N/A     82  77  83 CALM        N/A  HX  91
LUFKIN           N/A     81  79  94 MISG        N/A
N SABINE NF      N/A     81  77  89 MISG        N/A
S SABINE NF      N/A     81  77  89 CALM        N/A
$$

SUPPLEMENTAL OBSERVATIONS ARE A COLLECTION OF AUTOMATED INSTRUMENTS
THAT ARE MAINTAINED BY A VARIETY OF FEDERAL AND STATE AGENCIES.
CERTAIN ELEMENTS...SUCH AS HUMIDITY VALUES AND SUSTAINED WIND
SPEEDS...MAY BE APPROXIMATED.





USA.gov is the U.S. government's official web portal to all federal, state and local government web resources and services.